• En España
  • Lista de países
  • Para 7 días
  • Temperatura del agua
  • Mapa Satelital
  • El tiempo en el mapa
  • Informadores
  • user-avatar
    Iniciar sesión

    Tiempo cada hora Polotsk

    Hoy, 26 Febrero, Lunes

    Tiempo Temperatura Precipitaciones Viento Presión Humedad
    00:00 -18°C° 0 mm 1 mps 756 mmHg 98%
    01:00 -18°C° 0 mm 1 mps 756 mmHg 98%
    02:00 -18°C° 0 mm 1 mps 756 mmHg 98%
    03:00 -19°C° 0 mm 1 mps 756 mmHg 98%
    04:00 -19°C° 0 mm 1 mps 756 mmHg 98%
    05:00 -19°C° 0 mm 1 mps 755 mmHg 98%
    06:00 -18°C° 0 mm 1 mps 755 mmHg 98%
    07:00 -18°C° 0 mm 1 mps 755 mmHg 98%
    08:00 -18°C° 0 mm 1 mps 755 mmHg 97%
    09:00 -16°C° 0 mm 1 mps 755 mmHg 93%
    10:00 -15°C° 0 mm 1 mps 755 mmHg 89%
    11:00 -14°C° 0 mm 1 mps 755 mmHg 85%
    12:00 -13°C° 0 mm 1 mps 755 mmHg 83%
    13:00 -12°C° 0 mm 1 mps 755 mmHg 80%
    14:00 -12°C° 0 mm 1 mps 755 mmHg 77%
    15:00 -12°C° 0 mm 1 mps 755 mmHg 80%
    16:00 -13°C° 0 mm 1 mps 755 mmHg 84%
    17:00 -14°C° 0 mm 1 mps 755 mmHg 87%
    18:00 -15°C° 0 mm 1 mps 755 mmHg 89%
    19:00 -16°C° 0 mm 1 mps 755 mmHg 91%
    20:00 -17°C° 0 mm 1 mps 755 mmHg 93%
    21:00 -17°C° 0 mm 1 mps 755 mmHg 94%
    22:00 -18°C° 0 mm 1 mps 755 mmHg 95%
    23:00 -18°C° 0 mm 1 mps 755 mmHg 95%

    Mañana, 27 Febrero, Martes

    Tiempo Temperatura Precipitaciones Viento Presión Humedad
    00:00 -18°C° 0 mm 1 mps 756 mmHg 96%
    01:00 -19°C° 0 mm 1 mps 756 mmHg 96%
    02:00 -19°C° 0 mm 1 mps 756 mmHg 96%
    03:00 -23°C° 0 mm 2 mps 757 mmHg 96%
    04:00 -23°C° 0 mm 2 mps 757 mmHg 96%
    05:00 -24°C° 0 mm 2 mps 757 mmHg 97%
    06:00 -24°C° 0 mm 2 mps 758 mmHg 96%
    07:00 -24°C° 0 mm 2 mps 758 mmHg 96%
    08:00 -24°C° 0 mm 2 mps 758 mmHg 96%
    09:00 -24°C° 0 mm 3 mps 759 mmHg 93%
    10:00 -22°C° 0 mm 3 mps 759 mmHg 90%
    11:00 -21°C° 0 mm 3 mps 760 mmHg 87%
    12:00 -20°C° 0 mm 4 mps 760 mmHg 85%
    13:00 -19°C° 0 mm 4 mps 760 mmHg 83%
    14:00 -18°C° 0 mm 4 mps 760 mmHg 81%
    15:00 -19°C° 0 mm 4 mps 761 mmHg 83%
    16:00 -19°C° 0 mm 4 mps 761 mmHg 84%
    17:00 -18°C° 0 mm 3 mps 761 mmHg 86%
    18:00 -20°C° 0 mm 4 mps 761 mmHg 87%
    19:00 -22°C° 0 mm 4 mps 762 mmHg 88%
    20:00 -22°C° 0 mm 4 mps 762 mmHg 90%
    21:00 -22°C° 0 mm 4 mps 762 mmHg 90%
    22:00 -23°C° 0 mm 4 mps 762 mmHg 90%
    23:00 -23°C° 0 mm 4 mps 763 mmHg 91%

    Pasado mañana, 28 Febrero, Miércoles

    Tiempo Temperatura Precipitaciones Viento Presión Humedad
    00:00 -23°C° 0 mm 4 mps 763 mmHg 91%
    01:00 -23°C° 0 mm 4 mps 763 mmHg 91%
    02:00 -24°C° 0 mm 4 mps 763 mmHg 91%
    03:00 -24°C° 0 mm 4 mps 763 mmHg 91%
    04:00 -24°C° 0 mm 4 mps 763 mmHg 91%
    05:00 -25°C° 0 mm 5 mps 763 mmHg 91%
    06:00 -25°C° 0 mm 5 mps 763 mmHg 90%
    07:00 -25°C° 0 mm 5 mps 763 mmHg 89%
    08:00 -25°C° 0 mm 5 mps 763 mmHg 88%
    09:00 -24°C° 0 mm 5 mps 763 mmHg 86%
    10:00 -23°C° 0 mm 6 mps 762 mmHg 83%
    11:00 -21°C° 0 mm 6 mps 762 mmHg 81%
    12:00 -21°C° 0 mm 6 mps 762 mmHg 80%
    13:00 -20°C° 0 mm 6 mps 761 mmHg 78%
    14:00 -18°C° 0 mm 6 mps 761 mmHg 77%
    15:00 -18°C° 0 mm 6 mps 761 mmHg 78%
    16:00 -18°C° 0 mm 6 mps 760 mmHg 79%
    17:00 -18°C° 0 mm 5 mps 760 mmHg 80%
    18:00 -19°C° 0 mm 5 mps 760 mmHg 82%
    19:00 -19°C° 0 mm 5 mps 760 mmHg 84%
    20:00 -20°C° 0 mm 5 mps 760 mmHg 87%
    21:00 -20°C° 0 mm 5 mps 760 mmHg 87%
    22:00 -21°C° 0 mm 5 mps 759 mmHg 88%
    23:00 -20°C° 0 mm 4 mps 759 mmHg 89%

    1 Marzo, Jueves

    Tiempo Temperatura Precipitaciones Viento Presión Humedad
    00:00 -20°C° 0 mm 4 mps 759 mmHg 89%
    01:00 -22°C° 0 mm 4 mps 759 mmHg 90%
    02:00 -22°C° 0 mm 4 mps 759 mmHg 91%
    03:00 -22°C° 0 mm 4 mps 759 mmHg 91%
    04:00 -22°C° 0 mm 4 mps 758 mmHg 91%
    05:00 -22°C° 0 mm 4 mps 758 mmHg 91%
    06:00 -22°C° 0,1 mm 4 mps 758 mmHg 91%
    07:00 -20°C° 0,1 mm 4 mps 758 mmHg 91%
    08:00 -20°C° 0,1 mm 4 mps 758 mmHg 90%
    09:00 -19°C° 0 mm 4 mps 758 mmHg 89%
    10:00 -18°C° 0 mm 4 mps 758 mmHg 87%
    11:00 -17°C° 0 mm 4 mps 758 mmHg 86%
    12:00 -17°C° 0 mm 4 mps 758 mmHg 86%
    13:00 -16°C° 0 mm 4 mps 758 mmHg 85%
    14:00 -15°C° 0 mm 4 mps 757 mmHg 85%
    15:00 -15°C° 0 mm 4 mps 757 mmHg 86%
    16:00 -14°C° 0 mm 3 mps 757 mmHg 88%
    17:00 -14°C° 0 mm 3 mps 757 mmHg 89%
    18:00 -14°C° 0 mm 3 mps 756 mmHg 90%
    19:00 -14°C° 0 mm 3 mps 756 mmHg 91%
    20:00 -14°C° 0 mm 3 mps 756 mmHg 92%
    21:00 -15°C° 0,2 mm 4 mps 756 mmHg 92%
    22:00 -15°C° 0,2 mm 4 mps 755 mmHg 92%
    23:00 -15°C° 0,2 mm 4 mps 755 mmHg 93%

    2 Marzo, Viernes

    Tiempo Temperatura Precipitaciones Viento Presión Humedad
    00:00 -15°C° 0,3 mm 4 mps 754 mmHg 93%
    01:00 -15°C° 0,3 mm 4 mps 754 mmHg 93%
    02:00 -15°C° 0,3 mm 4 mps 754 mmHg 93%
    03:00 -15°C° 0,3 mm 4 mps 753 mmHg 93%
    04:00 -15°C° 0,3 mm 4 mps 753 mmHg 93%
    05:00 -14°C° 0,3 mm 4 mps 752 mmHg 93%
    06:00 -14°C° 0,1 mm 4 mps 752 mmHg 92%
    07:00 -14°C° 0,1 mm 4 mps 752 mmHg 91%
    08:00 -14°C° 0,1 mm 4 mps 752 mmHg 90%
    09:00 -14°C° 0,1 mm 4 mps 752 mmHg 89%
    10:00 -12°C° 0,1 mm 4 mps 751 mmHg 88%
    11:00 -12°C° 0,1 mm 4 mps 751 mmHg 87%
    12:00 -10°C° 0,1 mm 3 mps 751 mmHg 87%
    13:00 -10°C° 0,1 mm 3 mps 750 mmHg 86%
    14:00 -9°C° 0,1 mm 3 mps 750 mmHg 86%
    15:00 -10°C° 0,1 mm 3 mps 750 mmHg 88%
    16:00 -10°C° 0,1 mm 3 mps 749 mmHg 89%
    17:00 -9°C° 0,1 mm 2 mps 749 mmHg 90%
    18:00 -10°C° 0 mm 2 mps 749 mmHg 92%
    19:00 -12°C° 0 mm 2 mps 749 mmHg 94%
    20:00 -13°C° 0 mm 2 mps 749 mmHg 96%
    21:00 -12°C° 0 mm 2 mps 748 mmHg 96%
    22:00 -12°C° 0 mm 2 mps 748 mmHg 96%
    23:00 -12°C° 0 mm 2 mps 748 mmHg 96%

    3 Marzo, Sábado

    Tiempo Temperatura Precipitaciones Viento Presión Humedad
    00:00 -10°C° 0 mm 1 mps 748 mmHg 96%
    01:00 -10°C° 0 mm 1 mps 748 mmHg 96%
    02:00 -10°C° 0 mm 1 mps 747 mmHg 97%
    03:00 -10°C° 0 mm 1 mps 747 mmHg 97%
    04:00 -10°C° 0 mm 1 mps 747 mmHg 97%
    05:00 -10°C° 0 mm 1 mps 746 mmHg 97%
    06:00 -10°C° 0 mm 1 mps 746 mmHg 96%
    07:00 -9°C° 0 mm 1 mps 746 mmHg 96%
    08:00 -10°C° 0 mm 2 mps 746 mmHg 96%
    09:00 -9°C° 0 mm 2 mps 746 mmHg 94%
    10:00 -8°C° 0 mm 2 mps 746 mmHg 92%
    11:00 -7°C° 0 mm 2 mps 746 mmHg 90%
    12:00 -7°C° 0 mm 2 mps 745 mmHg 89%
    13:00 -6°C° 0 mm 2 mps 745 mmHg 88%
    14:00 -6°C° 0 mm 2 mps 745 mmHg 86%
    15:00 -6°C° 0 mm 2 mps 745 mmHg 87%
    16:00 -6°C° 0 mm 2 mps 744 mmHg 88%
    17:00 -6°C° 0 mm 2 mps 744 mmHg 89%
    18:00 -7°C° 0 mm 2 mps 744 mmHg 90%
    19:00 -8°C° 0 mm 2 mps 744 mmHg 92%
    20:00 -9°C° 0 mm 2 mps 744 mmHg 93%
    21:00 -9°C° 0 mm 2 mps 744 mmHg 93%
    22:00 -10°C° 0 mm 2 mps 744 mmHg 93%
    23:00 -10°C° 0 mm 2 mps 744 mmHg 93%
    Mostrar más